Location: Duac?
(36.9744°N, 30.6500°E)
Time: 11:50:20
(UTC+00:00)

MOS 1 Rocket - Pass Details

Date: 05 August 2024
Orbit: 612 x 819 km, 97.5° (Epoch: 11 September)

Event Time Altitude Azimuth Distance (km) Brightness Sun altitude
Exits shadow 18:39:12 34° 101° (E) 1,008 3.7 -18.0°
Maximum altitude 18:40:03 38° 73° (ENE) 935 3.7 -18.1°
Drops below altitude 10° 18:44:01 10° 5° (N) 1,978 6.1 -18.7°
Sets 18:46:19 0° 358° (N) 2,896 7.1 -19.1°
